THORAD AGENA D DEB, 42508

Orbit data source: Space-Track

THORAD AGENA D DEB, 42508 is space debris in SSO originally from a launch on Wed, 08 Apr 1970 UTC launched from the Air Force Western Test Range (AFWTR). Debris objects in space refer to the collection of defunct objects orbiting the Earth. Examples of debris include non-operational satellites, rocket bodies, and fragments generated from explosions, collisions, or faulty payload assembly.

Loading next visibility...
Identifier
42508, 1970-025RN
Orbit
SSO
Country
Flag of USUS
Related business
Manufacturer
Unknown
Mission
Spacecraft
Bus & Motor
Unknown
Mass
Unknown
Launch date (UTC)
1970-04-08 (56 years ago)
Launch vehicle
Unknown
Launch site
Air Force Western Test Range (AFWTR)
Object type
Payload
Rocket body
Debris
Shape & HBR
Unknown shape, 0.1 m
Radar Cross Section
Small (<0.1 m²)

Expand to show TLE details & history
Last TLE update: 20 hours ago

TLE from 20 hours ago
0 THORAD AGENA D DEB
1 42508U 70025RN  26122.38954307  .00000392  00000-0  32024-3 0  9993
2 42508  99.8210 352.2065 0120976 100.0200 261.4634 13.92813801169863
Epoch: 2026-05-02T09:20Z
TLE epoch observation values (Epoch: 2026-05-02T09:20:56.521Z)
Latitude
0.00001°
Longitude
-8.33715°
Altitude
935.775 km
Speed
7.377 km/s
True Right ascension
23h 28m 49s
True Declination
0° 00' 00"
Sunlit
Object was in daylight at epoch
Visualization orbit readout
Latitude
Unknown
Longitude
Unknown
Altitude
Unknown
Speed
Unknown
Apparent Right ascension
Unknown
Apparent Declination
Unknown
Sunlit
N/A
Visualization observer readout
Local Sidereal Time
13:00:27
Azimuth
Unknown
Elevation
Unknown
Doppler factor
Unknown
Orbital elements
Apogee altitude
1,004.279 km
Perigee altitude
827.795 km
Semi-major axis
7,294.174 km
Eccentricity
0.0121
Inclination
99.821°
RAAN
352.2065°
Arg. of periapsis
100.02°
True anomaly
260.09568°
Mean anomaly
261.4634°
Eccentric anomaly
260.77922°
Mean motion
3.48401 °/min
Orbital period
103.33 mins
BSTAR
0.00032024
Loading maneuver chart data...
Computing Atmospheric mass density...

Documentation

Showing up to 5 results
|